DW6064 Weather Reports


Display with metric or nautical units.
time (UTC)temp
F
wind
direction
speed
MPH
gust
MPH
rain 1hr
in
rain 24hr
in
rain mn
in
humidity
%
barometer
mb
20260901110037 74 150 2.0 7.0 0.00 0.00 0.00 89 1017.0
20260901105533 74 156 4.0 7.0 0.00 0.00 0.00 89 1016.8
20260901105056 74 152 3.0 5.0 0.00 0.00 0.00 89 1016.9
20260901104536 74 137 2.0 4.0 0.00 0.00 0.00 89 1017.0
20260901104036 74 137 2.0 4.0 0.00 0.00 0.00 89 1016.9
20260901103533 74 160 3.0 7.0 0.00 0.00 0.00 89 1016.9
20260901103057 74 165 3.0 7.0 0.00 0.00 0.00 89 1016.9
20260901102533 74 150 2.0 5.0 0.00 0.00 0.00 89 1016.9
20260901102034 74 124 3.0 5.0 0.00 0.00 0.00 89 1016.8
20260901101530 74 101 3.0 7.0 0.00 0.00 0.00 89 1016.8
20260901101049 74 134 3.0 7.0 0.00 0.00 0.00 89 1016.7
20260901100545 74 142 4.0 7.0 0.00 0.00 0.00 89 1016.7
20260901100025 75 134 3.0 7.0 0.00 0.00 0.00 89 1016.7
20260901095542 74 153 4.0 7.0 0.00 0.00 0.00 89 1016.7
20260901095042 74 152 5.0 7.0 0.00 0.00 0.00 89 1016.7
20260901094540 75 136 5.0 8.0 0.00 0.00 0.00 88 1016.8
20260901094103 75 147 5.0 8.0 0.00 0.00 0.00 88 1016.8
20260901093538 75 141 5.0 7.0 0.00 0.00 0.00 89 1016.8
20260901093102 75 141 4.0 7.0 0.00 0.00 0.00 89 1016.8
20260901092538 74 140 3.0 6.0 0.00 0.00 0.00 89 1016.9
20260901092036 74 149 3.0 5.0 0.00 0.00 0.00 89 1016.9
20260901091533 74 140 3.0 5.0 0.00 0.00 0.00 88 1016.9
20260901091056 74 169 2.0 7.0 0.00 0.00 0.00 88 1017.0
20260901090536 74 139 4.0 7.0 0.00 0.00 0.00 89 1016.9
20260901090035 74 158 3.0 5.0 0.00 0.00 0.00 89 1016.9
20260901085558 74 167 4.0 5.0 0.00 0.00 0.00 89 1016.8
20260901085036 74 187 2.0 4.0 0.00 0.00 0.00 89 1016.8
20260901084559 74 149 1.0 6.0 0.00 0.00 0.00 89 1016.8
20260901084036 74 149 2.0 6.0 0.00 0.00 0.00 89 1016.9
20260901083534 74 149 3.0 6.0 0.00 0.00 0.00 89 1016.8
20260901083033 74 170 4.0 6.0 0.00 0.00 0.00 89 1016.8
20260901082530 74 169 4.0 5.0 0.00 0.00 0.00 89 1016.8
20260901082030 74 159 4.0 7.0 0.00 0.00 0.00 89 1016.7
20260901081525 74 159 4.0 7.0 0.00 0.00 0.00 89 1016.9
20260901081044 74 159 2.0 5.0 0.00 0.00 0.00 89 1017.0
20260901080541 74 148 3.0 5.0 0.00 0.00 0.00 89 1017.0
20260901080041 74 169 4.0 5.0 0.00 0.00 0.00 89 1017.0
20260901075537 74 151 4.0 6.0 0.00 0.00 0.00 89 1017.0
20260901075037 74 169 2.0 5.0 0.00 0.00 0.00 89 1017.0
20260901074539 74 169 2.0 5.0 0.00 0.00 0.00 89 1017.1
20260901074038 74 169 2.0 4.0 0.00 0.00 0.00 89 1017.1
20260901073533 74 169 2.0 4.0 0.00 0.00 0.00 89 1017.1
20260901073032 74 169 0.0 3.0 0.00 0.00 0.00 89 1017.0
20260901072529 74 169 1.0 3.0 0.00 0.00 0.00 89 1017.0
20260901072033 74 169 1.0 3.0 0.00 0.00 0.00 89 1017.0
20260901071556 74 169 2.0 3.0 0.00 0.00 0.00 89 1017.0
20260901071033 73 169 1.0 4.0 0.00 0.00 0.00 89 1016.9
20260901070528 73 169 2.0 2.0 0.00 0.00 0.00 89 1016.9
20260901070027 73 169 1.0 3.0 0.00 0.00 0.00 89 1016.9
20260901065544 73 169 2.0 3.0 0.00 0.00 0.00 89 1016.9
20260901065040 73 169 2.0 3.0 0.00 0.00 0.00 89 1016.9
20260901064536 73 169 3.0 4.0 0.00 0.00 0.00 89 1017.0
20260901064035 73 174 3.0 4.0 0.00 0.00 0.00 89 1017.0
20260901063533 73 164 3.0 5.0 0.00 0.00 0.00 89 1017.0
20260901063032 73 159 3.0 5.0 0.00 0.00 0.00 88 1017.0
20260901062529 73 192 3.0 4.0 0.00 0.00 0.00 88 1017.1
20260901062033 73 192 0.0 0.0 0.00 0.00 0.00 88 1017.2
20260901061531 73 192 0.0 0.0 0.00 0.00 0.00 88 1017.3
20260901061033 73 192 0.0 0.0 0.00 0.00 0.00 87 1017.3
20260901060550 73 192 0.0 0.0 0.00 0.00 0.00 87 1017.5
20260901060028 73 192 0.0 0.0 0.00 0.00 0.00 87 1017.4
20260901055543 73 192 0.0 0.0 0.00 0.00 0.00 87 1017.5
20260901055041 74 192 0.0 0.0 0.00 0.00 0.00 87 1017.6
20260901054538 73 192 0.0 0.0 0.00 0.00 0.00 87 1017.7
20260901054037 74 192 0.0 0.0 0.00 0.00 0.00 87 1017.8
20260901053534 74 192 0.0 0.0 0.00 0.00 0.00 87 1017.8
20260901053058 74 192 0.0 0.0 0.00 0.00 0.00 87 1017.8
20260901052534 73 192 0.0 0.0 0.00 0.00 0.00 87 1017.9
20260901052032 74 192 0.0 0.0 0.00 0.00 0.00 87 1018.0
20260901051549 74 192 0.0 0.0 0.00 0.00 0.00 87 1017.9
20260901051028 74 192 0.0 0.0 0.00 0.00 0.00 86 1017.8
20260901050543 74 192 0.0 0.0 0.00 0.00 0.00 86 1017.7
20260901050042 74 192 0.0 0.0 0.00 0.00 0.00 86 1017.7
20260901045539 74 192 0.0 0.0 0.00 0.00 0.00 87 1017.7
20260901045038 74 192 0.0 0.0 0.00 0.00 0.00 86 1017.7
20260901044539 74 192 0.0 2.0 0.00 0.00 0.00 86 1017.7
20260901044103 74 192 1.0 2.0 0.00 0.00 0.00 87 1017.8
20260901043539 74 192 0.0 2.0 0.00 0.00 0.00 86 1017.8
20260901043037 74 192 0.0 2.0 0.00 0.00 0.00 86 1017.8
20260901042536 74 192 0.0 2.0 0.00 0.00 0.00 86 1017.7
20260901042034 74 192 0.0 2.0 0.00 0.00 0.00 86 1017.8
20260901041556 74 192 1.0 3.0 0.00 0.00 0.00 86 1017.9
20260901041034 74 192 2.0 3.0 0.00 0.00 0.00 86 1017.8
20260901040532 74 192 2.0 3.0 0.00 0.00 0.00 86 1018.0
20260901040050 74 192 1.0 3.0 0.00 0.00 0.00 85 1018.0
20260901035541 74 192 2.0 3.0 0.00 0.00 0.00 85 1018.0
20260901035039 74 192 1.0 3.0 0.00 0.00 0.00 85 1018.1
20260901034537 74 192 1.0 3.0 0.00 0.00 0.00 85 1018.1
20260901034036 75 192 2.0 3.0 0.00 0.00 0.00 85 1018.1
20260901033534 75 192 2.0 4.0 0.00 0.00 0.00 85 1018.0
20260901033033 75 192 2.0 4.0 0.00 0.00 0.00 85 1018.1
20260901032530 75 192 3.0 4.0 0.00 0.00 0.00 85 1018.1
20260901032049 75 192 2.0 4.0 0.00 0.00 0.00 84 1018.1
20260901031529 75 192 2.0 3.0 0.00 0.00 0.00 83 1018.1
20260901031028 75 192 1.0 4.0 0.00 0.00 0.00 83 1018.2
20260901030524 75 192 2.0 4.0 0.00 0.00 0.00 83 1018.3
20260901030044 75 192 2.0 3.0 0.00 0.00 0.00 82 1018.3
20260901025539 75 192 1.0 3.0 0.00 0.00 0.00 81 1018.4
20260901025038 75 192 1.0 2.0 0.00 0.00 0.00 81 1018.5
20260901024536 75 192 1.0 3.0 0.00 0.00 0.00 80 1018.5
20260901024101 75 192 1.0 3.0 0.00 0.00 0.00 80 1018.5
20260901023538 75 192 2.0 3.0 0.00 0.00 0.00 80 1018.6
20260901023036 75 192 0.0 0.0 0.00 0.00 0.00 80 1018.6
20260901022534 75 192 0.0 0.0 0.00 0.00 0.00 80 1018.7
20260901022033 75 192 0.0 0.0 0.00 0.00 0.00 79 1018.7
20260901021556 76 192 0.0 0.0 0.00 0.00 0.00 79 1018.7
20260901021033 76 192 0.0 0.0 0.00 0.00 0.00 79 1018.7
20260901020530 76 192 0.0 0.0 0.00 0.00 0.00 79 1018.7
20260901020030 76 192 0.0 0.0 0.00 0.00 0.00 79 1018.6
20260901015552 76 192 0.0 0.0 0.00 0.00 0.00 78 1018.6
20260901015055 76 192 0.0 2.0 0.00 0.00 0.00 78 1018.6
20260901014535 76 192 0.0 3.0 0.00 0.00 0.00 78 1018.6
20260901014035 76 192 1.0 4.0 0.00 0.00 0.00 77 1018.6
20260901013532 76 192 2.0 4.0 0.00 0.00 0.00 77 1018.4
20260901013031 76 192 0.0 1.0 0.00 0.00 0.00 78 1018.4
20260901012528 76 192 0.0 2.0 0.00 0.00 0.00 79 1018.3
20260901012027 76 192 1.0 3.0 0.00 0.00 0.00 78 1018.2
20260901011544 76 192 1.0 3.0 0.00 0.00 0.00 79 1018.1
20260901011044 76 192 2.0 3.0 0.00 0.00 0.00 79 1018.2
20260901010541 76 192 2.0 3.0 0.00 0.00 0.00 79 1018.1
20260901010041 76 192 0.0 0.0 0.00 0.00 0.00 78 1018.1
20260901005537 76 192 0.0 0.0 0.00 0.00 0.00 78 1018.0
20260901005036 76 192 0.0 0.0 0.00 0.00 0.00 79 1017.9
20260901004533 76 192 0.0 3.0 0.00 0.00 0.00 79 1018.0
20260901004032 76 192 1.0 4.0 0.00 0.00 0.00 78 1017.8
20260901003534 77 192 2.0 4.0 0.00 0.00 0.00 79 1017.6
20260901003030 77 192 1.0 4.0 0.00 0.00 0.00 80 1017.7
20260901002548 77 192 2.0 7.0 0.00 0.00 0.00 79 1017.6
20260901002026 77 192 2.0 7.0 0.00 0.00 0.00 80 1017.6
20260901001543 78 184 2.0 5.0 0.00 0.00 0.00 81 1017.7
20260901001043 78 166 4.0 6.0 0.00 0.00 0.00 81 1017.7
20260901000541 78 174 5.0 5.0 0.00 0.00 0.00 81 1017.7
20260901000037 79 190 2.0 5.0 0.00 0.00 0.00 81 1017.7
20260831235534 79 159 3.0 5.0 0.00 0.00 0.00 80 1017.6
20260831235033 79 139 0.0 3.0 0.00 0.00 0.00 80 1017.6
20260831234549 79 139 0.0 3.0 0.00 0.00 0.00 80 1017.6
20260831234027 79 139 1.0 4.0 0.00 0.00 0.00 80 1017.7
20260831233524 79 139 2.0 4.0 0.00 0.00 0.00 80 1017.6
20260831233042 79 139 2.0 5.0 0.00 0.00 0.00 80 1017.6
20260831232540 79 139 3.0 5.0 0.00 0.00 0.00 79 1017.7
20260831232039 80 148 4.0 7.0 0.00 0.00 0.00 79 1017.7
20260831231536 80 149 3.0 7.0 0.00 0.00 0.00 79 1017.8
20260831231035 80 178 4.0 6.0 0.00 0.00 0.00 79 1018.0
20260831230536 80 173 3.0 6.0 0.00 0.00 0.00 79 1018.0
20260831225537 80 183 3.0 4.0 0.00 0.00 0.00 78 1018.1
20260831225037 80 192 2.0 4.0 0.00 0.00 0.00 78 1018.1
20260831224532 80 192 2.0 4.0 0.00 0.00 0.00 77 1018.0
20260831224031 80 173 3.0 8.0 0.00 0.00 0.00 77 1018.0
20260831223528 80 132 4.0 8.0 0.00 0.00 0.00 77 1017.8
20260831223049 81 140 5.0 7.0 0.00 0.00 0.00 77 1017.9
20260831222543 81 165 4.0 6.0 0.00 0.00 0.00 76 1018.1
20260831222041 81 192 4.0 5.0 0.00 0.00 0.00 75 1018.3
20260831221539 81 188 4.0 7.0 0.00 0.00 0.00 76 1018.2
20260831221038 82 167 4.0 7.0 0.00 0.00 0.00 76 1018.2
20260831220534 82 132 4.0 7.0 0.00 0.00 0.00 75 1018.2
20260831220034 82 126 3.0 4.0 0.00 0.00 0.00 75 1018.2
20260831215530 82 126 1.0 4.0 0.00 0.00 0.00 75 1018.3
20260831215030 82 126 2.0 4.0 0.00 0.00 0.00 75 1018.3
20260831214553 82 126 1.0 4.0 0.00 0.00 0.00 74 1018.2
20260831214035 82 126 2.0 5.0 0.00 0.00 0.00 75 1018.2
20260831213533 82 177 3.0 5.0 0.00 0.00 0.00 73 1018.4
20260831213033 82 200 2.0 6.0 0.00 0.00 0.00 73 1018.4
20260831212531 82 197 2.0 6.0 0.00 0.00 0.00 73 1018.4
20260831212056 82 150 3.0 5.0 0.00 0.00 0.00 72 1018.5
20260831211556 81 153 3.0 6.0 0.00 0.00 0.00 73 1018.5
20260831211033 81 169 4.0 4.0 0.00 0.00 0.00 74 1018.5
20260831210531 81 140 2.0 3.0 0.00 0.00 0.00 75 1018.6
20260831210031 81 205 1.0 3.0 0.00 0.00 0.00 77 1018.6
20260831205553 81 205 1.0 3.0 0.00 0.00 0.00 75 1018.7
20260831205031 81 205 2.0 4.0 0.00 0.00 0.00 75 1018.7
20260831204529 81 205 2.0 5.0 0.00 0.00 0.00 75 1018.7
20260831204028 82 195 2.0 7.0 0.00 0.00 0.00 74 1018.7
20260831203525 82 194 3.0 7.0 0.00 0.00 0.00 72 1018.7
20260831203025 83 191 5.0 6.0 0.00 0.00 0.00 70 1018.6
20260831202541 83 195 4.0 7.0 0.00 0.00 0.00 67 1018.7
20260831202040 83 153 3.0 7.0 0.00 0.00 0.00 68 1018.8
20260831201542 84 123 4.0 9.0 0.00 0.00 0.00 67 1018.8
20260831201041 84 182 6.0 9.0 0.00 0.00 0.00 66 1018.9
20260831200539 84 156 6.0 8.0 0.00 0.00 0.00 66 1018.9
20260831200036 84 189 6.0 8.0 0.00 0.00 0.00 65 1018.8
20260831195534 84 169 5.0 8.0 0.00 0.00 0.00 64 1018.9
20260831195034 84 180 3.0 10.0 0.00 0.00 0.00 64 1018.9
20260831194532 85 188 4.0 10.0 0.00 0.00 0.00 64 1019.0
20260831194032 85 184 5.0 10.0 0.00 0.00 0.00 63 1019.0
20260831193529 85 194 6.0 9.0 0.00 0.00 0.00 62 1019.0
20260831193029 85 188 4.0 10.0 0.00 0.00 0.00 62 1019.0
20260831192543 85 194 4.0 10.0 0.00 0.00 0.00 60 1019.0
20260831192043 86 176 4.0 8.0 0.00 0.00 0.00 62 1019.1
20260831191539 86 198 3.0 9.0 0.00 0.00 0.00 62 1019.1
20260831191038 86 168 4.0 7.0 0.00 0.00 0.00 60 1019.2
20260831190541 86 197 1.0 7.0 0.00 0.00 0.00 59 1019.4
20260831190039 87 223 3.0 11.0 0.00 0.00 0.00 60 1019.4
20260831185537 87 177 4.0 11.0 0.00 0.00 0.00 59 1019.3
20260831185035 87 229 2.0 8.0 0.00 0.00 0.00 61 1019.4
20260831184534 86 212 5.0 8.0 0.00 0.00 0.00 60 1019.4
20260831184032 85 154 5.0 12.0 0.00 0.00 0.00 61 1019.4
20260831183530 85 124 7.0 12.0 0.00 0.00 0.00 63 1019.4
20260831183049 84 181 7.0 11.0 0.00 0.00 0.00 63 1019.3
20260831182525 84 190 6.0 10.0 0.00 0.00 0.00 63 1019.4
20260831182045 84 154 5.0 10.0 0.00 0.00 0.00 63 1019.5
20260831181542 84 163 7.0 10.0 0.00 0.00 0.00 64 1019.6
20260831181041 84 189 6.0 8.0 0.00 0.00 0.00 64 1019.6
20260831180536 83 152 3.0 8.0 0.00 0.00 0.00 65 1019.5
20260831180036 83 186 4.0 8.0 0.00 0.00 0.00 64 1019.6
20260831175533 83 169 6.0 10.0 0.00 0.00 0.00 65 1019.6
20260831175035 83 166 7.0 10.0 0.00 0.00 0.00 65 1019.6
20260831174558 83 171 5.0 9.0 0.00 0.00 0.00 64 1019.8
20260831174041 83 187 3.0 7.0 0.00 0.00 0.00 65 1019.7
20260831173537 83 220 4.0 7.0 0.00 0.00 0.00 64 1019.8
20260831173037 83 188 3.0 8.0 0.00 0.00 0.00 64 1019.8
20260831172533 83 187 2.0 8.0 0.00 0.00 0.00 63 1019.8
20260831172033 83 184 2.0 8.0 0.00 0.00 0.00 65 1019.8
20260831171530 83 220 1.0 9.0 0.00 0.00 0.00 64 1019.8
20260831171055 83 201 4.0 9.0 0.00 0.00 0.00 63 1019.9
20260831170531 83 192 5.0 10.0 0.00 0.00 0.00 62 1019.8
20260831170031 84 245 3.0 7.0 0.00 0.00 0.00 64 1019.9
20260831165528 84 214 2.0 5.0 0.00 0.00 0.00 62 1019.9
20260831165053 84 190 2.0 8.0 0.00 0.00 0.00 62 1019.9
20260831164528 85 130 5.0 8.0 0.00 0.00 0.00 61 1019.9
20260831164054 85 175 4.0 6.0 0.00 0.00 0.00 62 1019.9
20260831163530 85 256 3.0 6.0 0.00 0.00 0.00 60 1020.0
20260831163031 85 250 2.0 9.0 0.00 0.00 0.00 62 1020.1
20260831162552 85 160 5.0 9.0 0.00 0.00 0.00 60 1020.1
20260831162030 85 238 3.0 6.0 0.00 0.00 0.00 62 1020.2
20260831161531 84 169 1.0 6.0 0.00 0.00 0.00 64 1020.3
20260831161030 83 214 3.0 6.0 0.00 0.00 0.00 64 1020.3
20260831160526 83 236 2.0 8.0 0.00 0.00 0.00 63 1020.3
20260831160049 83 178 5.0 8.0 0.00 0.00 0.00 63 1020.2
20260831155525 83 233 4.0 8.0 0.00 0.00 0.00 62 1020.2
20260831155025 83 218 2.0 8.0 0.00 0.00 0.00 62 1020.1
20260831154543 84 192 2.0 6.0 0.00 0.00 0.00 63 1020.3
20260831154043 84 163 2.0 8.0 0.00 0.00 0.00 61 1020.4
20260831153540 85 197 2.0 8.0 0.00 0.00 0.00 61 1020.2
20260831153039 84 185 3.0 9.0 0.00 0.00 0.00 63 1020.2
20260831152536 83 127 0.0 5.0 0.00 0.00 0.00 64 1020.3
20260831152035 83 127 1.0 5.0 0.00 0.00 0.00 62 1020.3
20260831151532 83 107 0.0 7.0 0.00 0.00 0.00 65 1020.4
20260831151033 83 157 3.0 7.0 0.00 0.00 0.00 63 1020.3
20260831150529 82 102 2.0 5.0 0.00 0.00 0.00 64 1020.4
20260831150033 81 150 2.0 5.0 0.00 0.00 0.00 64 1020.4
20260831145528 81 157 1.0 4.0 0.00 0.00 0.00 65 1020.5
20260831145028 81 128 0.0 1.0 0.00 0.00 0.00 69 1020.4
20260831144525 81 128 0.0 4.0 0.00 0.00 0.00 69 1020.5
20260831144044 80 128 0.0 6.0 0.00 0.00 0.00 69 1020.5
20260831143539 80 128 2.0 6.0 0.00 0.00 0.00 69 1020.4
20260831143104 80 142 3.0 5.0 0.00 0.00 0.00 71 1020.2
20260831142544 79 296 0.0 0.0 0.00 0.00 0.00 73 1020.2
20260831142044 79 296 0.0 4.0 0.00 0.00 0.00 74 1020.3
20260831141541 78 296 0.0 4.0 0.00 0.00 0.00 76 1020.6
20260831141105 78 254 2.0 4.0 0.00 0.00 0.00 77 1020.5
20260831140539 78 295 2.0 4.0 0.00 0.00 0.00 77 1020.6
20260831140039 77 11 0.0 4.0 0.00 0.00 0.00 79 1020.7
20260831135536 77 11 2.0 4.0 0.00 0.00 0.00 81 1020.5
20260831135035 76 5 0.0 3.0 0.00 0.00 0.00 82 1020.6
20260831134552 76 5 1.0 3.0 0.00 0.00 0.00 82 1020.6
20260831134029 75 5 0.0 1.0 0.00 0.00 0.00 82 1020.6
20260831133526 75 5 0.0 2.0 0.00 0.00 0.00 84 1020.7
20260831133029 74 5 1.0 2.0 0.00 0.00 0.00 85 1020.7
20260831132526 74 5 0.0 2.0 0.00 0.00 0.00 85 1020.7
20260831132027 73 5 0.0 3.0 0.00 0.00 0.00 86 1020.8
20260831131544 73 5 0.0 4.0 0.00 0.00 0.00 86 1020.8
20260831131043 73 5 2.0 4.0 0.00 0.00 0.00 85 1020.8
20260831130541 73 5 1.0 2.0 0.00 0.00 0.00 86 1020.7
20260831130040 72 5 1.0 3.0 0.00 0.00 0.00 87 1020.7
20260831125602 72 5 1.0 4.0 0.00 0.00 0.00 88 1020.6
20260831125041 72 5 2.0 4.0 0.00 0.00 0.00 88 1020.6
20260831124538 72 297 3.0 4.0 0.00 0.00 0.00 88 1020.7
20260831124104 72 323 3.0 4.0 0.00 0.00 0.00 88 1020.5
20260831123539 72 128 2.0 4.0 0.00 0.00 0.00 88 1020.5
20260831123037 72 128 0.0 4.0 0.00 0.00 0.00 89 1020.4
20260831122559 72 128 2.0 4.0 0.00 0.00 0.00 89 1020.6
20260831122103 71 128 2.0 3.0 0.00 0.00 0.00 89 1020.6
20260831121540 71 128 1.0 2.0 0.00 0.00 0.00 89 1020.5
20260831121039 71 128 1.0 2.0 0.00 0.00 0.00 89 1020.4
20260831120536 71 128 0.0 3.0 0.00 0.00 0.00 89 1020.4
20260831120040 71 128 0.0 4.0 0.00 0.00 0.00 89 1020.1
20260831115535 71 137 2.0 5.0 0.00 0.00 0.00 89 1020.0
20260831115033 71 120 3.0 5.0 0.00 0.00 0.00 90 1020.1
20260831114530 71 55 0.0 4.0 0.00 0.00 0.00 90 1020.3
20260831114055 71 55 2.0 4.0 0.00 0.00 0.00 90 1020.3
20260831113555 71 22 1.0 4.0 0.00 0.00 0.00 90 1020.3
20260831113033 71 22 2.0 3.0 0.00 0.00 0.00 90 1020.3
20260831112530 71 17 1.0 3.0 0.00 0.00 0.00 90 1020.2
20260831112030 71 44 1.0 4.0 0.00 0.00 0.00 90 1020.1
20260831111528 71 342 3.0 4.0 0.00 0.00 0.00 90 1020.1
20260831111027 71 12 2.0 6.0 0.00 0.00 0.00 90 1020.1
20260831110524 71 355 3.0 7.0 0.00 0.00 0.00 89 1020.1
20260831110043 71 5 2.0 5.0 0.00 0.00 0.00 89 1020.1